Location: Arborea
(39.7744°N, 8.5819°E)
Time: 00:47:15
(UTC+00:00)

CZ-2C DEB - Pass Details

Date: 25 August 2022
Orbit: 681 x 928 km, 97.9° (Epoch: 29 September)

Event Time Altitude Azimuth Distance (km) Brightness Sun altitude
Rises 21:48:07 0° 5° (N) 3,332 ? -34.7°
Reaches altitude 10° 21:50:28 10° 360° (N) 2,434 ? -34.9°
Enters shadow 21:54:28 41° 322° (NW) 1,230 ? -35.3°
